Meteo Giornale » Osservazioni meteo Brasile » Recife Aeroporto
ore: 21:00 - Osservazioni Meteo Recife Aeroporto
Lat. 8° 4' S Lon. 34° 51' W Alt. 19 metri s.l.m.
27 °C
Nuvoloso
Temp. 24 Ore
25 °C
29 °C
Sud-Est
20.3 Km/h
Dew point 22 °C
Umidità 74 %
Visibilità 10 Km
Il sole sorge alle ore 05:21
Il sole tramonta alle ore 17:18
| Data e Ora | Cielo e Fenomeni | T °C | DP °C | Um. % | Pres. hPa | Vis. km | Vento km/h | |
|---|---|---|---|---|---|---|---|---|
| Oggi h: 21:00 | Nuvoloso | 27 | 22 | 74 | 1016 | 10 | SE 20.3 | |
| Oggi h: 20:00 | Nuvoloso | 26 | 23 | 83 | 1016 | 10 | S/SE 18.5 | |
| Oggi h: 19:00 | Nuvoloso | 27 | 23 | 78 | 1015 | 10 | SE 18.5 | |
| Oggi h: 18:00 | Nuvoloso | 27 | 22 | 74 | 1015 | 10 | S/SE 18.5 | |
| Oggi h: 17:00 | Nuvoloso | 27 | 22 | 74 | 1015 | 10 | SE 16.7 | |
| Oggi h: 16:00 | Molto Nuvoloso | 27 | 23 | 78 | 1014 | 10 | SE 20.3 | |
| Oggi h: 15:00 | Nuvoloso | 28 | 22 | 69 | 1014 | 10 | SE 20.3 | |
| Oggi h: 14:00 | Nuvoloso | 29 | 23 | 70 | 1015 | 10 | E/SE 20.3 | |
| Oggi h: 13:00 | Nuvoloso | 29 | 23 | 70 | 1015 | 10 | SE 20.3 | |
| Oggi h: 12:00 | Nuvoloso | 29 | 23 | 70 | 1016 | 10 | SE 18.5 | |
| Oggi h: 11:00 | Molto Nuvoloso | 28 | 23 | 74 | 1016 | 10 | E/SE 20.3 | |
| Oggi h: 10:00 | Molto Nuvoloso | 28 | 23 | 74 | 1017 | 10 | E/SE 20.3 | |
| Oggi h: 09:00 | Molto Nuvoloso | 28 | 23 | 74 | 1017 | 10 | E/SE 22.2 | |
| Oggi h: 08:00 | Molto Nuvoloso | 27 | 22 | 74 | 1016 | 10 | E/SE 20.3 | |
| Oggi h: 07:00 | Molto Nuvoloso | 26 | 23 | 83 | 1015 | 10 | SE 18.5 | |
| Oggi h: 06:00 | Pioggia nelle vicinanze | 26 | 22 | 78 | 1015 | 10 | E/SE 18.5 | |
| Oggi h: 05:00 | Molto Nuvoloso | 26 | 22 | 78 | 1014 | 10 | E/SE 16.7 | |
| Oggi h: 04:00 | Molto Nuvoloso | 26 | 22 | 78 | 1014 | 10 | E 14.8 | |
| Oggi h: 03:00 | Pioggia nelle vicinanze | 26 | 23 | 83 | 1013 | 10 | E/SE 16.7 | |
| Oggi h: 02:00 | Molto Nuvoloso | 26 | 23 | 83 | 1014 | 10 | E/SE 18.5 | |
| Oggi h: 01:00 | Molto Nuvoloso | 26 | 23 | 83 | 1014 | 10 | E 18.5 | |
| Oggi h: 00:00 | Pioggia | 26 | 23 | 83 | 1015 | 10 | E 16.7 | |
| Ieri h: 23:00 | Pioggia nelle vicinanze | 26 | 23 | 83 | 1015 | 10 | E/SE 14.8 | |
| Ieri h: 22:00 | Pioggia | 25 | 23 | 88 | 1016 | 7 | SE 9.3 | |



